Vorticity
5 5 4 6 7 6 6 6 6 7 6 4 2 2 2 2 3 3 3 7 8 7 6 6 5 5 5 6 6 5 5 5 4 4 3 4 5 5 5 5 6 5 5
7 6 4 5 6 6 6 6 5 7 6 7 7 6 3 6 6 5 8 7 5 4 3 5 5 6 5 6 6 5 7 7 5 6 5 4 4 3 3 2 3 5 5
7 6 4 5 6 6 6 5 5 6 7 7 7 8 7 6 5 9 5 4 3 2 3 5 6 7 7 8 9 10 7 7 7 6 5 5 7 8 7 6 5 5 5
6 6 4 4 4 4 5 4 5 5 5 6 6 6 7 7 6 5 4 3 2 4 3 6 8 6 6 9 2 3 8 4 4 4 6 5 1 -4 4 2 5 5 4
7 6 4 3 3 3 3 3 4 3 3 4 4 5 5 5 4 4 2 2 1 1 2 7 7 7 8 8 9 5 8 9 11 6 2 3 4 7 5 5 6 7 7
7 5 7 3 5 4 3 3 3 3 3 3 3 3 3 3 3 3 2 3 2 3 6 9 8 10 9 9 9 10 10 7 4 3 3 4 6 8 8 7 7 7 7
5 6 7 7 6 6 6 6 5 5 5 6 5 5 4 3 2 3 2 3 4 7 10 10 11 10 9 8 9 9 8 8 8 9 9 8 7 7 6 6 5 5 5
4 5 4 6 7 6 6 6 7 7 9 9 9 8 8 8 7 6 6 6 8 9 9 10 10 9 8 7 7 8 6 7 7 5 5 5 5 5 5 5 5 5 4
4 4 3 3 5 5 6 7 7 7 7 7 7 7 7 8 9 10 10 9 8 8 7 7 6 5 5 4 5 5 5 4 4 3 4 4 4 5 5 5 5 5 4
3 3 2 4 3 4 6 6 7 7 7 8 7 8 8 7 7 6 6 6 6 6 6 5 4 4 4 4 4 4 4 3 4 4 4 4 5 5 5 5 4 4 4
4 3 4 4 3 2 3 5 5 7 7 7 7 7 7 7 7 7 7 7 6 6 5 4 4 4 4 4 4 4 4 4 4 4 4 4 4 4 4 4 4 4 4
7 7 6 5 2 2 2 3 5 6 6 6 6 6 6 7 6 6 6 6 5 5 4 4 5 5 5 5 5 5 4 4 4 4 4 4 4 4 4 4 5 4 4
6 6 7 7 7 7 5 4 3 4 5 5 5 6 7 7 7 7 6 6 6 5 5 4 4 4 5 5 5 5 4 5 5 5 4 4 4 4 4 4 4 4 3
6 5 5 6 6 6 7 6 6 5 5 5 5 5 6 6 6 6 6 6 5 5 5 5 5 5 4 5 5 6 5 5 5 5 6 6 5 5 4 4 5 5 5
6 6 5 6 6 7 7 7 7 7 6 5 5 5 5 4 5 6 5 5 6 6 6 6 5 5 5 5 5 6 6 6 6 6 5 5 5 5 5 6 6 6 6
7 7 6 6 6 6 7 7 7 7 7 6 6 5 5 7 7 7 6 6 6 6 6 6 6 6 6 6 6 7 7 6 6 6 6 6 6 6 7 8 8 9 8
8 6 7 7 8 8 8 8 8 7 7 6 6 5 6 8 7 6 7 6 6 6 6 7 7 7 7 7 7 6 6 6 6 6 6 7 8 9 10 8 6 5 5
6 7 6 7 8 8 8 8 8 7 6 6 5 5 5 7 7 7 6 6 6 6 6 7 7 7 6 5 5 5 5 5 7 8 9 9 8 6 5 5 2 1 4
6 6 7 7 8 7 7 7 7 7 6 6 6 5 6 7 6 6 5 6 6 6 7 7 6 5 4 4 5 4 5 6 7 9 10 9 7 5 3 4 6 5 6
5 5 5 6 7 6 6 6 7 7 7 7 7 7 7 6 6 6 6 6 6 6 6 5 4 4 4 4 5 5 8 9 9 7 7 4 3 5 5 5 6 6 5
4 4 5 6 7 8 8 8 8 9 9 8 7 7 7 6 7 6 6 6 6 5 5 5 5 5 5 5 6 8 9 9 8 7 4 6 6 4 4 4 5 4 3
4 5 5 6 6 7 8 7 5 5 6 6 7 6 6 6 6 6 5 5 5 5 5 6 6 6 5 7 9 10 10 7 6 5 5 4 3 3 4 5 5 4 4
5 6 6 6 5 6 6 5 6 7 6 7 7 6 6 6 6 5 5 5 5 5 6 7 6 7 8 10 10 8 8 5 5 7 3 3 3 2 4 5 4 3 4
5 6 7 7 6 5 4 6 7 7 7 7 7 6 5 6 6 6 5 5 6 6 6 5 5 7 8 9 10 7 6 6 5 4 2 4 2 3 6 5 3 4 4
7 7 7 7 6 5 4 5 6 6 6 5 5 6 5 6 7 6 6 5 6 5 5 4 6 8 9 10 8 6 5 4 4 4 3 -3 -3 0 3 3 3 3 6
5 7 7 6 6 6 5 4 5 5 6 6 6 7 7 7 7 6 5 6 4 4 5 6 7 8 8 8 6 5 6 5 4 4 5 3 4 5 6 4 3 6 8
Height
3147 3149 3151 3153 3155 3156 3158 3160 3161 3163 3164 3165 3166 3167 3168 3169 3169 3170 3172 3172 3172 3173 3174 3174 3175 3175 3175 3175 3175 3174 3175 3175 3176 3176 3176 3176 3176 3176 3176 3175 3175 3175 3175
3148 3149 3152 3153 3156 3159 3160 3161 3162 3164 3165 3167 3168 3168 3170 3171 3171 3172 3173 3174 3175 3175 3176 3176 3176 3177 3177 3176 3176 3176 3176 3177 3177 3177 3178 3178 3178 3178 3178 3178 3177 3177 3177
3149 3151 3153 3155 3158 3160 3161 3163 3164 3166 3167 3168 3169 3171 3171 3172 3173 3174 3175 3176 3177 3177 3178 3178 3178 3177 3178 3177 3177 3177 3178 3178 3179 3179 3179 3180 3180 3180 3179 3179 3178 3178 3178
3150 3152 3154 3157 3159 3161 3163 3165 3166 3168 3170 3171 3172 3172 3173 3174 3175 3176 3177 3178 3179 3179 3179 3179 3179 3178 3178 3178 3178 3178 3179 3179 3180 3181 3181 3182 3182 3181 3181 3181 3180 3180 3179
3151 3153 3156 3158 3161 3163 3165 3167 3168 3170 3171 3172 3173 3174 3175 3176 3177 3177 3178 3180 3180 3180 3180 3180 3179 3179 3180 3180 3180 3180 3181 3181 3181 3182 3183 3183 3183 3182 3182 3182 3181 3180 3180
3152 3154 3157 3160 3162 3164 3166 3168 3169 3171 3172 3173 3174 3175 3176 3177 3179 3179 3180 3181 3181 3181 3181 3181 3181 3181 3182 3182 3181 3182 3182 3183 3183 3183 3184 3184 3184 3183 3183 3183 3182 3182 3181
3153 3155 3158 3160 3162 3165 3167 3169 3170 3172 3173 3174 3175 3176 3177 3178 3179 3179 3181 3181 3182 3183 3183 3183 3183 3183 3183 3183 3183 3183 3183 3184 3184 3185 3185 3185 3185 3185 3186 3185 3185 3184 3183
3154 3156 3158 3160 3163 3165 3167 3169 3171 3173 3174 3175 3176 3176 3177 3179 3180 3181 3181 3181 3182 3182 3183 3184 3185 3185 3185 3185 3185 3185 3185 3186 3186 3186 3186 3187 3187 3187 3187 3186 3186 3185 3184
3153 3156 3158 3161 3163 3166 3168 3170 3172 3173 3174 3175 3176 3177 3178 3179 3180 3180 3181 3182 3182 3183 3184 3184 3185 3185 3186 3186 3186 3187 3187 3187 3187 3188 3188 3188 3188 3188 3188 3187 3186 3185 3184
3153 3156 3159 3162 3164 3166 3169 3171 3172 3173 3174 3176 3176 3177 3178 3179 3180 3181 3182 3182 3183 3184 3184 3185 3186 3187 3187 3188 3188 3188 3188 3188 3189 3189 3190 3189 3189 3189 3188 3187 3185 3184 3183
3152 3156 3159 3162 3165 3167 3169 3171 3173 3174 3175 3176 3177 3178 3179 3180 3181 3181 3182 3183 3183 3184 3185 3186 3187 3187 3187 3188 3188 3189 3189 3189 3190 3190 3190 3190 3189 3188 3187 3186 3185 3184 3183
3152 3155 3159 3162 3164 3167 3170 3172 3173 3174 3175 3176 3178 3179 3180 3181 3182 3182 3183 3184 3185 3185 3186 3187 3187 3188 3189 3189 3189 3189 3189 3190 3190 3190 3190 3189 3188 3187 3186 3186 3185 3184 3183
3153 3156 3159 3161 3164 3166 3169 3171 3173 3175 3175 3176 3178 3179 3180 3181 3182 3183 3184 3185 3186 3186 3186 3186 3187 3187 3188 3189 3189 3189 3189 3190 3190 3189 3189 3188 3188 3187 3186 3185 3184 3183 3182
3152 3155 3158 3161 3163 3166 3168 3170 3173 3174 3175 3176 3178 3180 3181 3182 3183 3184 3185 3185 3186 3186 3187 3187 3188 3188 3188 3189 3189 3190 3190 3190 3189 3189 3189 3188 3187 3186 3185 3184 3183 3181 3180
3152 3155 3158 3160 3163 3165 3167 3169 3172 3174 3175 3177 3178 3179 3180 3181 3183 3184 3185 3185 3186 3186 3187 3188 3188 3189 3189 3189 3189 3190 3190 3190 3189 3188 3187 3186 3185 3184 3183 3182 3180 3179 3178
3151 3154 3157 3160 3162 3165 3167 3169 3171 3173 3175 3176 3178 3179 3180 3182 3183 3184 3185 3185 3186 3187 3187 3188 3188 3188 3189 3188 3189 3189 3189 3188 3187 3186 3185 3184 3183 3182 3180 3180 3179 3178 3177
3150 3153 3156 3158 3161 3163 3165 3168 3170 3171 3174 3176 3177 3179 3180 3181 3182 3183 3184 3185 3185 3186 3186 3187 3187 3188 3188 3188 3188 3188 3187 3187 3186 3184 3183 3182 3181 3181 3180 3179 3177 3176 3174
3148 3152 3154 3157 3159 3162 3164 3166 3168 3170 3172 3174 3176 3177 3179 3180 3181 3182 3183 3184 3184 3185 3185 3186 3186 3187 3187 3187 3187 3186 3186 3185 3184 3183 3182 3181 3180 3179 3178 3176 3175 3173 3171
3148 3150 3153 3156 3158 3160 3162 3165 3167 3169 3171 3172 3174 3176 3178 3179 3180 3181 3182 3183 3183 3184 3185 3185 3186 3185 3185 3185 3185 3184 3184 3183 3182 3181 3180 3179 3178 3177 3175 3173 3171 3169 3166
3146 3149 3151 3153 3156 3158 3161 3163 3165 3167 3169 3171 3173 3175 3176 3178 3179 3180 3181 3182 3182 3183 3183 3183 3184 3184 3184 3183 3183 3182 3181 3181 3180 3179 3178 3177 3176 3174 3172 3170 3168 3165 3162
3143 3146 3149 3151 3154 3157 3160 3162 3164 3166 3168 3170 3172 3173 3175 3176 3178 3179 3179 3180 3180 3181 3181 3181 3182 3182 3181 3181 3180 3179 3179 3178 3177 3177 3176 3175 3173 3171 3169 3166 3163 3160 3156
3141 3144 3147 3149 3152 3155 3157 3159 3161 3163 3165 3167 3169 3171 3172 3174 3175 3176 3177 3178 3178 3178 3179 3179 3179 3179 3179 3178 3177 3177 3176 3177 3175 3174 3174 3172 3170 3168 3165 3162 3159 3155 3151
3138 3141 3145 3147 3150 3152 3154 3156 3158 3160 3163 3165 3167 3168 3170 3171 3172 3174 3175 3175 3176 3176 3176 3176 3176 3176 3175 3175 3174 3175 3174 3174 3173 3172 3172 3170 3168 3165 3162 3158 3154 3150 3145
3135 3138 3141 3144 3146 3149 3150 3153 3156 3158 3160 3162 3163 3165 3166 3168 3170 3171 3172 3173 3173 3173 3173 3173 3172 3172 3172 3172 3172 3171 3171 3171 3170 3170 3169 3167 3165 3162 3158 3154 3149 3144 3139
3132 3134 3137 3140 3142 3144 3146 3149 3152 3154 3156 3158 3159 3161 3163 3165 3166 3167 3168 3169 3169 3169 3169 3169 3169 3169 3169 3169 3168 3168 3168 3167 3166 3165 3164 3163 3162 3158 3153 3148 3142 3136 3130
3125 3128 3131 3134 3137 3139 3141 3144 3147 3150 3153 3154 3156 3158 3159 3161 3162 3163 3164 3165 3165 3165 3165 3165 3165 3165 3165 3164 3164 3164 3163 3162 3160 3158 3157 3156 3154 3152 3146 3140 3135 3129 3124